, TX

(GMT )
Ingleside

Weather History for KTFP - August, 2014

Change the Weather History Date:

Friday, August 15, 2014

  Actual Average Record
Temperature  
Mean Temperature 87 °F -  
Max Temperature 94 °F - - ()
Min Temperature 80 °F - - ()
Cooling Degree Days 22    
Growing Degree Days 37 (Base 50)    
Moisture  
Dew Point 75 °F    
Average Humidity 70    
Maximum Humidity 89    
Minimum Humidity 48    
Precipitation  
Precipitation 0.00 in - - ()
Sea Level Pressure  
Sea Level Pressure 29.95 in    
Wind  
Wind Speed 9 mph (SSE)    
Max Wind Speed 18 mph    
Max Gust Speed 24 mph    
Visibility 10 miles    
Events      
Averages and records for this station are not official NWS values.
T = Trace of Precipitation, MM = Missing Value Source: NWS Daily Summary

Daily Weather History Graph

Daily Weather History Graph

Search for Another Location

Airport or City:

Trip Planner

Search our weather history database for the weather conditions in past years. The results will help you decide how hot, cold, wet, or windy it might be!

Date:

Astronomy

Aug. 15, 2014 Rise Set
Actual Time 6:59 AM CDT 8:07 PM CDT
Civil Twilight 6:34 AM CDT 8:31 PM CDT
Nautical Twilight 6:05 AM CDT 9:00 PM CDT
Astronomical Twilight 5:35 AM CDT 9:30 PM CDT
Moon 11:45 PM CDT (8/15) 12:10 PM CDT (8/15)
Length of Visible Light 13h 57m
Length of Day
13h 07m
Waning Gibbous, 69% of the Moon is Illuminated
Aug 15
Waning Gibbous
Aug 17
Last Quarter
Aug 25
New
Sep 2
First Quarter
Sep 8
Full

Hourly Weather History & Observations

Time (CDT) Temp. Heat Index Dew Point Humidity Pressure Visibility Wind Dir Wind Speed Gust Speed Precip Events Conditions
12:15 AM 81.7 °F 89.0 °F 76.3 °F 84% 29.95 in 10.0 mi South 3.5 mph - N/A   Scattered Clouds
12:35 AM 81.7 °F 89.7 °F 77.5 °F 87% 29.95 in 10.0 mi South 3.5 mph - N/A   Scattered Clouds
12:55 AM 81.5 °F 89.5 °F 77.7 °F 88% 29.95 in 10.0 mi SSE 4.6 mph - N/A   Scattered Clouds
1:15 AM 80.8 °F 87.6 °F 77.2 °F 89% 29.95 in 10.0 mi SSE 5.8 mph - N/A   Clear
1:35 AM 80.6 °F 87.1 °F 77.0 °F 89% 29.95 in 10.0 mi South 5.8 mph - N/A   Scattered Clouds
1:55 AM 80.8 °F 87.4 °F 77.0 °F 88% 29.95 in 10.0 mi South 5.8 mph - N/A   Clear
2:15 AM 81.0 °F 87.9 °F 77.2 °F 88% 29.95 in 10.0 mi South 5.8 mph - N/A   Clear
2:35 AM 80.6 °F 87.1 °F 77.0 °F 89% 29.95 in 10.0 mi SSE 4.6 mph - N/A   Clear
2:55 AM 80.2 °F 86.1 °F 76.6 °F 89% 29.95 in 10.0 mi SSE 6.9 mph - N/A   Clear
3:15 AM 80.6 °F 87.1 °F 77.0 °F 89% 29.95 in 10.0 mi SSE 6.9 mph - N/A   Clear
3:35 AM 81.3 °F 89.0 °F 77.4 °F 88% 29.95 in 10.0 mi SSE 6.9 mph - N/A   Clear
3:55 AM 81.5 °F 89.0 °F 77.0 °F 86% 29.96 in 10.0 mi South 8.1 mph - N/A   Clear
4:15 AM 81.9 °F 89.7 °F 77.0 °F 85% 29.96 in 10.0 mi South 6.9 mph - N/A   Clear
4:35 AM 81.9 °F 89.7 °F 77.0 °F 85% 29.96 in 10.0 mi South 6.9 mph - N/A   Clear
4:55 AM 81.7 °F 89.2 °F 76.6 °F 85% 29.96 in 10.0 mi South 5.8 mph - N/A   Clear
5:35 AM 81.5 °F 89.0 °F 76.8 °F 86% 29.96 in 10.0 mi South 4.6 mph - N/A   Clear
5:55 AM 81.1 °F 88.2 °F 77.0 °F 87% 29.96 in 10.0 mi South 5.8 mph - N/A   Clear
6:15 AM 81.5 °F 89.0 °F 77.0 °F 86% 29.97 in 10.0 mi South 8.1 mph - N/A   Clear
6:35 AM 81.7 °F 89.5 °F 77.0 °F 86% 29.97 in 10.0 mi South 6.9 mph - N/A   Clear
6:55 AM 81.9 °F 89.5 °F 76.5 °F 84% 29.97 in 10.0 mi South 6.9 mph - N/A   Clear
7:15 AM 81.7 °F 89.0 °F 76.5 °F 84% 29.98 in 10.0 mi SSE 5.8 mph - N/A   Clear
7:35 AM 81.7 °F 89.5 °F 77.2 °F 86% 29.98 in 10.0 mi South 5.8 mph - N/A   Clear
7:55 AM 82.6 °F 91.4 °F 77.2 °F 84% 29.99 in 10.0 mi South 4.6 mph - N/A   Clear
8:15 AM 83.3 °F 92.8 °F 77.4 °F 82% 29.99 in 10.0 mi South 6.9 mph - N/A   Clear
8:35 AM 86.0 °F 97.3 °F 77.2 °F 75% 29.99 in 10.0 mi South 6.9 mph - N/A   Clear
8:55 AM 87.1 °F 98.3 °F 76.6 °F 71% 29.99 in 10.0 mi SSW 11.5 mph - N/A   Mostly Cloudy
9:15 AM 86.0 °F 95.5 °F 75.7 °F 71% 30.00 in 10.0 mi SSW 11.5 mph - N/A   Scattered Clouds
9:35 AM 87.3 °F 97.2 °F 75.4 °F 68% 30.00 in 10.0 mi South 11.5 mph - N/A   Scattered Clouds
9:55 AM 87.3 °F 96.8 °F 75.2 °F 67% 30.01 in 10.0 mi South 11.5 mph - N/A   Clear
10:15 AM 86.5 °F 95.5 °F 74.7 °F 68% 30.01 in 10.0 mi South 13.8 mph - N/A   Clear
10:35 AM 87.8 °F 96.6 °F 74.5 °F 64% 30.01 in 10.0 mi SSW 10.4 mph - N/A   Clear
10:55 AM 88.0 °F 98.0 °F 75.4 °F 66% 30.01 in 10.0 mi SSW 6.9 mph - N/A   Scattered Clouds
11:15 AM 90.1 °F 99.4 °F 73.9 °F 59% 30.01 in 10.0 mi SSW 12.7 mph - N/A   Scattered Clouds
11:35 AM 91.8 °F 100.3 °F 72.9 °F 54% 30.00 in 10.0 mi South 9.2 mph - N/A   Scattered Clouds
11:55 AM 92.5 °F 100.1 °F 71.8 °F 51% 29.99 in 10.0 mi South 12.7 mph 17.3 mph N/A   Clear
12:15 PM 93.0 °F 100.7 °F 71.6 °F 50% 29.99 in 10.0 mi South 9.2 mph - N/A   Clear
12:35 PM 93.6 °F 100.7 °F 71.4 °F 48% 29.98 in 10.0 mi South 11.5 mph - N/A   Clear
12:55 PM 93.6 °F 102.5 °F 73.0 °F 51% 29.97 in 10.0 mi SSE 10.4 mph 16.1 mph N/A   Clear
1:15 PM 93.7 °F 102.9 °F 72.9 °F 51% 29.97 in 10.0 mi SE 13.8 mph 18.4 mph N/A   Scattered Clouds
1:35 PM 93.9 °F 103.4 °F 73.4 °F 51% 29.97 in 10.0 mi SSE 12.7 mph 17.3 mph N/A   Clear
1:55 PM 94.1 °F 102.5 °F 72.5 °F 49% 29.96 in 10.0 mi SSE 10.4 mph 17.3 mph N/A   Clear
2:15 PM 94.3 °F 102.2 °F 72.0 °F 48% 29.95 in 10.0 mi SSE 15.0 mph 18.4 mph N/A   Clear
2:35 PM 94.1 °F 103.1 °F 72.7 °F 50% 29.94 in 10.0 mi SE 12.7 mph - N/A   Clear
2:55 PM 94.1 °F 103.8 °F 73.2 °F 51% 29.94 in 10.0 mi SSE 15.0 mph 21.9 mph N/A   Clear
3:15 PM 93.4 °F 102.1 °F 73.0 °F 51% 29.93 in 10.0 mi SSE 16.1 mph 23.0 mph N/A   Clear
3:35 PM 93.6 °F 103.2 °F 73.8 °F 52% 29.92 in 10.0 mi SSE 15.0 mph - N/A   Clear
3:55 PM 93.7 °F 103.6 °F 73.8 °F 52% 29.91 in 10.0 mi SE 17.3 mph 24.2 mph N/A   Clear
4:15 PM 93.2 °F 102.4 °F 73.4 °F 52% 29.91 in 10.0 mi SSE 18.4 mph - N/A   Clear
4:35 PM 92.8 °F 103.4 °F 74.3 °F 55% 29.90 in 10.0 mi SSE 18.4 mph 24.2 mph N/A   Clear
4:55 PM 92.5 °F 102.6 °F 73.9 °F 55% 29.90 in 10.0 mi SE 17.3 mph - N/A   Clear
5:15 PM 92.1 °F 102.4 °F 74.3 °F 56% 29.90 in 10.0 mi SE 17.3 mph 21.9 mph N/A   Clear
5:35 PM 91.8 °F 102.1 °F 74.7 °F 57% 29.90 in 10.0 mi SE 15.0 mph 21.9 mph N/A   Clear
5:55 PM 91.8 °F 102.1 °F 74.5 °F 57% 29.89 in 10.0 mi SE 13.8 mph - N/A   Clear
6:15 PM 91.2 °F 101.4 °F 74.5 °F 58% 29.88 in 10.0 mi SSE 15.0 mph - N/A   Clear
6:35 PM 90.5 °F 100.3 °F 74.3 °F 59% 29.88 in 10.0 mi SSE 15.0 mph 21.9 mph N/A   Clear
6:55 PM 89.2 °F 99.0 °F 74.7 °F 62% 29.88 in 10.0 mi SSE 17.3 mph - N/A   Clear
7:15 PM 88.5 °F 98.3 °F 74.8 °F 64% 29.88 in 10.0 mi SSE 17.3 mph - N/A   Clear
7:35 PM 87.6 °F 96.2 °F 74.3 °F 64% 29.88 in 10.0 mi SSE 15.0 mph 19.6 mph N/A   Clear
7:55 PM 86.5 °F 95.5 °F 74.7 °F 68% 29.88 in 10.0 mi SSE 17.3 mph - N/A   Clear
8:15 PM 85.8 °F 95.1 °F 75.4 °F 71% 29.89 in 10.0 mi SSE 12.7 mph - N/A   Clear
8:35 PM 85.3 °F 94.2 °F 75.4 °F 72% 29.89 in 10.0 mi SSE 15.0 mph 21.9 mph N/A   Clear
9:15 PM 85.1 °F 94.5 °F 76.1 °F 74% 29.89 in 10.0 mi SSE 15.0 mph 20.7 mph N/A   Clear
9:35 PM 85.1 °F 94.5 °F 76.1 °F 74% 29.89 in 10.0 mi SSE 17.3 mph 21.9 mph N/A   Clear
9:55 PM 85.1 °F 94.9 °F 76.3 °F 75% 29.90 in 10.0 mi South 11.5 mph 20.7 mph N/A   Clear
10:15 PM 85.1 °F 94.9 °F 76.5 °F 75% 29.90 in 10.0 mi SSE 17.3 mph - N/A   Clear
10:35 PM 85.1 °F 94.9 °F 76.5 °F 75% 29.91 in 10.0 mi SSE 17.3 mph 23.0 mph N/A   Clear
11:15 PM 84.9 °F 94.5 °F 76.3 °F 75% 29.92 in 10.0 mi South 13.8 mph 24.2 mph N/A   Clear
11:35 PM 85.1 °F 94.9 °F 76.5 °F 75% 29.92 in 10.0 mi South 16.1 mph 21.9 mph N/A   Clear
11:55 PM 84.7 °F 94.4 °F 76.5 °F 76% 29.92 in 10.0 mi South 17.3 mph - N/A   Clear